GW1031 Weather Reports


Display with metric or nautical units.
time (UTC)temp
F
wind
direction
speed
MPH
gust
MPH
rain 1hr
in
rain 24hr
in
rain mn
in
humidity
%
barometer
mb
20260902065402 51 150 0.0 0.0 0.00 0.00 0.00 87 1025.4
20260902064857 51 146 0.0 0.0 0.00 0.00 0.00 88 1025.6
20260902064353 51 115 0.0 0.0 0.00 0.00 0.00 89 1025.7
20260902063848 51 178 0.0 0.0 0.00 0.00 0.00 88 1025.4
20260902063343 51 178 0.0 0.0 0.00 0.00 0.00 87 1025.6
20260902062842 51 169 0.0 0.0 0.00 0.00 0.00 86 1025.6
20260902062337 51 101 1.0 1.0 0.00 0.00 0.00 85 1025.4
20260902061836 51 159 0.0 0.0 0.00 0.00 0.00 85 1025.4
20260902061332 52 159 0.0 0.0 0.00 0.00 0.00 85 1025.4
20260902060828 52 150 0.0 0.0 0.00 0.00 0.00 84 1025.4
20260902060324 52 161 0.0 0.0 0.00 0.00 0.00 85 1025.4
20260902055819 52 152 0.0 0.0 0.00 0.01 0.01 86 1025.3
20260902055316 52 160 0.0 0.0 0.00 0.01 0.01 85 1025.3
20260902054816 53 160 0.0 0.0 0.00 0.01 0.01 83 1025.4
20260902054311 53 160 0.0 0.0 0.00 0.01 0.01 82 1025.2
20260902053806 53 151 0.0 0.0 0.00 0.01 0.01 82 1025.3
20260902053301 53 160 0.0 0.0 0.00 0.01 0.01 81 1025.4
20260902052800 53 160 0.0 0.0 0.00 0.01 0.01 79 1025.3
20260902052255 53 160 0.0 0.0 0.00 0.01 0.01 77 1025.1
20260902051755 54 160 0.0 0.0 0.00 0.01 0.01 78 1025.2
20260902051249 54 151 0.0 0.0 0.00 0.01 0.01 78 1025.1
20260902050745 54 176 0.0 0.0 0.00 0.01 0.01 78 1024.9
20260902050240 54 148 0.0 0.0 0.00 0.01 0.01 78 1025.1
20260902045739 54 148 0.0 0.0 0.00 0.01 0.01 76 1024.8
20260902045236 55 142 0.0 0.0 0.00 0.01 0.01 76 1025.2
20260902044732 55 174 0.0 0.0 0.00 0.01 0.01 76 1024.9
20260902044226 55 149 0.0 0.0 0.00 0.01 0.01 77 1024.7
20260902043721 55 157 0.0 0.0 0.00 0.01 0.01 74 1024.9
20260902043217 56 157 0.0 0.0 0.00 0.01 0.01 74 1024.8
20260902042716 56 187 0.0 0.0 0.00 0.01 0.01 73 1024.9
20260902042211 57 150 0.0 0.0 0.00 0.01 0.01 74 1024.7
20260902041706 57 150 0.0 0.0 0.00 0.01 0.01 70 1024.8
20260902041201 58 167 0.0 0.0 0.00 0.01 0.01 68 1024.6
20260902040701 58 143 0.0 0.0 0.00 0.01 0.01 69 1024.7
20260902040156 59 182 0.0 0.0 0.00 0.01 0.01 63 1024.6
20260902035654 59 176 0.0 0.0 0.00 0.01 0.01 61 1024.5
20260902035150 59 155 0.0 0.0 0.00 0.01 0.01 61 1024.3
20260902034649 59 191 0.0 0.0 0.00 0.01 0.01 61 1024.1
20260902034148 59 146 0.0 0.0 0.00 0.01 0.01 64 1024.3
20260902033647 59 176 0.0 0.0 0.00 0.01 0.01 59 1024.2
20260902033143 59 158 0.0 0.0 0.00 0.01 0.01 59 1023.8
20260902032641 60 158 0.0 0.0 0.00 0.01 0.01 59 1024.1
20260902032136 61 201 0.0 0.0 0.00 0.01 0.01 58 1023.8
20260902031630 62 201 0.0 0.0 0.00 0.01 0.01 57 1023.8
20260902031126 62 210 0.0 1.0 0.00 0.01 0.01 57 1023.8
20260902030621 63 185 0.0 0.0 0.00 0.01 0.01 54 1023.8
20260902030121 64 116 0.0 1.0 0.00 0.01 0.01 53 1023.6
20260902025620 64 66 1.0 1.0 0.00 0.01 0.01 53 1023.7
20260902025116 65 138 0.0 1.0 0.00 0.01 0.01 48 1023.1
20260902024612 66 201 0.0 0.0 0.00 0.01 0.01 49 1023.2
20260902024106 66 205 0.0 1.0 0.00 0.01 0.01 48 1023.2
20260902023602 68 118 0.0 0.0 0.00 0.01 0.01 50 1023.4
20260902023057 68 190 0.0 0.0 0.00 0.01 0.01 44 1023.0
20260902022556 68 192 0.0 0.0 0.00 0.01 0.01 44 1023.1
20260902022052 68 202 0.0 0.0 0.00 0.01 0.01 45 1022.9
20260902021547 68 245 2.0 3.0 0.00 0.01 0.01 44 1022.6
20260902021042 69 197 0.0 1.0 0.00 0.01 0.01 44 1022.8
20260902020532 69 200 1.0 2.0 0.00 0.01 0.01 44 1022.8
20260902020028 69 242 2.0 3.0 0.00 0.01 0.01 44 1022.5
20260902015524 69 187 0.0 1.0 0.00 0.01 0.01 45 1022.8
20260902015019 70 170 0.0 1.0 0.00 0.01 0.01 44 1022.6
20260902014515 70 179 1.0 1.0 0.00 0.01 0.01 43 1022.1
20260902014010 70 144 0.0 0.0 0.00 0.01 0.01 41 1022.3
20260902013505 70 141 0.0 0.0 0.00 0.01 0.01 42 1022.3
20260902013000 68 192 0.0 0.0 0.00 0.01 0.01 48 1022.1
20260902012455 68 193 0.0 0.0 0.00 0.01 0.01 48 1021.8
20260902011951 68 196 0.0 0.0 0.00 0.01 0.01 48 1022.1
20260902011447 69 169 0.0 0.0 0.00 0.01 0.01 46 1022.3
20260902010946 69 153 0.0 0.0 0.00 0.01 0.01 45 1022.4
20260902010441 70 191 0.0 0.0 0.00 0.01 0.01 44 1022.4
20260902005940 71 187 0.0 0.0 0.00 0.01 0.01 44 1022.4
20260902005439 72 158 0.0 0.0 0.00 0.01 0.01 42 1022.1
20260902004936 74 199 0.0 0.0 0.00 0.01 0.01 38 1022.1
20260902004435 75 189 0.0 0.0 0.00 0.01 0.01 37 1021.9
20260902003931 76 160 0.0 1.0 0.00 0.01 0.01 35 1021.8
20260902003430 76 267 3.0 3.0 0.00 0.01 0.01 34 1021.9
20260902002926 76 307 2.0 3.0 0.00 0.01 0.01 35 1021.8
20260902002421 76 207 1.0 1.0 0.00 0.01 0.01 35 1021.9
20260902001920 75 180 0.0 0.0 0.00 0.01 0.01 35 1021.9
20260902001415 76 186 0.0 0.0 0.00 0.01 0.01 36 1021.9
20260902000911 77 138 0.0 1.0 0.00 0.01 0.01 36 1021.8
20260902000407 78 83 0.0 0.0 0.00 0.01 0.01 33 1021.5
20260901235901 82 241 1.0 2.0 0.00 0.01 0.01 31 1022.0
20260901235400 84 255 2.0 2.0 0.00 0.01 0.01 30 1021.8
20260901234855 83 127 1.0 1.0 0.00 0.01 0.01 31 1022.1
20260901234350 83 163 3.0 5.0 0.00 0.01 0.01 30 1022.0
20260901233845 83 176 0.0 1.0 0.00 0.01 0.01 32 1021.9
20260901233341 82 268 1.0 2.0 0.00 0.01 0.01 32 1021.8
20260901232837 83 162 2.0 2.0 0.00 0.01 0.01 32 1021.8
20260901232331 84 51 2.0 2.0 0.00 0.01 0.01 30 1021.9
20260901231827 84 201 1.0 1.0 0.00 0.01 0.01 32 1022.0
20260901231323 84 244 2.0 2.0 0.00 0.01 0.01 29 1022.0
20260901230820 85 241 1.0 2.0 0.00 0.01 0.01 30 1021.8
20260901230319 84 246 0.0 1.0 0.00 0.01 0.01 31 1022.1
20260901225815 83 179 2.0 2.0 0.00 0.01 0.01 30 1022.3
20260901225314 85 176 1.0 1.0 0.00 0.01 0.01 30 1022.1
20260901224809 85 215 0.0 0.0 0.00 0.01 0.01 29 1022.4
20260901224306 85 207 1.0 1.0 0.00 0.01 0.01 31 1022.1
20260901223801 85 36 0.0 0.0 0.00 0.01 0.01 33 1022.4
20260901223256 85 290 1.0 1.0 0.00 0.01 0.01 29 1022.4
20260901222752 86 191 0.0 1.0 0.00 0.01 0.01 26 1022.3
20260901222248 86 227 1.0 1.0 0.00 0.01 0.01 29 1022.0
20260901221743 85 153 1.0 2.0 0.00 0.01 0.01 32 1022.1
20260901221239 84 91 1.0 1.0 0.00 0.01 0.01 37 1022.0
20260901220738 84 300 2.0 3.0 0.00 0.01 0.01 32 1022.0
20260901220233 84 259 3.0 3.0 0.00 0.01 0.01 35 1022.3
20260901215731 85 155 1.0 2.0 0.00 0.01 0.01 33 1022.1
20260901215225 84 192 3.0 5.0 0.00 0.01 0.01 32 1022.5
20260901214724 83 206 1.0 1.0 0.00 0.01 0.01 34 1022.6
20260901214218 84 158 1.0 2.0 0.00 0.01 0.01 33 1022.4
20260901213712 84 135 2.0 3.0 0.00 0.01 0.01 32 1022.8
20260901213207 84 290 2.0 2.0 0.00 0.01 0.01 35 1022.8
20260901212706 83 297 1.0 1.0 0.00 0.01 0.01 33 1022.8
20260901212203 85 110 1.0 1.0 0.00 0.01 0.01 36 1022.8
20260901211702 84 235 0.0 1.0 0.00 0.01 0.01 35 1022.6
20260901211159 83 179 2.0 2.0 0.00 0.01 0.01 33 1022.9
20260901210654 84 323 2.0 2.0 0.00 0.01 0.01 33 1023.1
20260901210150 84 288 1.0 1.0 0.00 0.01 0.01 34 1022.9
20260901205645 83 243 1.0 1.0 0.00 0.01 0.01 34 1023.1
20260901205140 82 171 2.0 2.0 0.00 0.01 0.01 33 1023.4
20260901204636 84 170 2.0 2.0 0.00 0.01 0.01 32 1023.4
20260901204131 84 252 0.0 1.0 0.00 0.01 0.01 35 1023.1
20260901203631 83 92 1.0 2.0 0.00 0.01 0.01 32 1023.4
20260901203126 82 198 0.0 1.0 0.00 0.01 0.01 35 1023.7
20260901202625 82 61 0.0 1.0 0.00 0.01 0.01 38 1023.8
20260901202121 82 143 2.0 2.0 0.00 0.01 0.01 37 1023.7
20260901201618 82 92 1.0 1.0 0.00 0.01 0.01 39 1023.7
20260901201116 81 113 2.0 2.0 0.00 0.01 0.01 38 1023.6
20260901200616 79 245 2.0 2.0 0.00 0.01 0.01 38 1024.1
20260901200111 78 130 0.0 1.0 0.00 0.01 0.01 39 1023.6
20260901195609 77 228 0.0 1.0 0.00 0.01 0.01 44 1023.8
20260901195109 76 208 0.0 0.0 0.00 0.01 0.01 41 1023.8
20260901194604 77 188 0.0 0.0 0.00 0.01 0.01 40 1024.2
20260901194059 78 102 2.0 2.0 0.00 0.01 0.01 38 1023.8
20260901193554 82 78 0.0 1.0 0.00 0.01 0.01 40 1024.1
20260901193049 82 208 2.0 2.0 0.00 0.01 0.01 38 1024.2
20260901192544 81 137 2.0 2.0 0.00 0.01 0.01 36 1024.1
20260901192040 81 189 1.0 2.0 0.00 0.01 0.01 37 1024.6
20260901191536 79 87 1.0 1.0 0.00 0.01 0.01 42 1024.1
20260901191032 80 114 0.0 1.0 0.00 0.01 0.01 37 1024.1
20260901190526 79 233 1.0 1.0 0.00 0.01 0.01 44 1024.3
20260901190026 80 159 0.0 1.0 0.00 0.01 0.01 39 1024.5
20260901185519 80 230 1.0 2.0 0.00 0.01 0.01 36 1024.2
20260901185018 80 233 1.0 2.0 0.00 0.01 0.01 38 1024.6
20260901184514 79 118 0.0 0.0 0.00 0.01 0.01 41 1024.7
20260901184009 79 123 1.0 2.0 0.00 0.01 0.01 44 1024.8
20260901183503 78 239 2.0 2.0 0.00 0.01 0.01 38 1024.9
20260901182959 78 205 1.0 2.0 0.00 0.01 0.01 38 1024.8
20260901182454 77 145 0.0 1.0 0.00 0.01 0.01 42 1024.9
20260901181948 76 167 2.0 2.0 0.00 0.01 0.01 43 1024.9
20260901181443 75 132 0.0 0.0 0.00 0.01 0.01 45 1024.9
20260901180941 75 225 0.0 1.0 0.00 0.01 0.01 46 1024.7
20260901180436 74 191 1.0 2.0 0.00 0.01 0.01 45 1024.7
20260901175934 73 200 0.0 1.0 0.00 0.01 0.01 49 1024.9
20260901175429 73 218 2.0 2.0 0.00 0.01 0.01 49 1025.1
20260901174924 73 198 0.0 0.0 0.00 0.01 0.01 50 1025.2
20260901174420 72 161 1.0 1.0 0.00 0.01 0.01 53 1025.2
20260901173916 71 96 0.0 0.0 0.00 0.01 0.01 55 1025.3
20260901173410 71 169 1.0 1.0 0.00 0.01 0.01 53 1025.1
20260901172907 71 114 2.0 2.0 0.00 0.01 0.01 53 1025.3
20260901172401 70 179 1.0 1.0 0.00 0.01 0.01 52 1025.3
20260901171859 70 103 0.0 0.0 0.00 0.01 0.01 55 1025.2
20260901171358 70 155 0.0 1.0 0.00 0.01 0.01 56 1025.6
20260901170857 69 196 0.0 0.0 0.00 0.01 0.01 55 1025.8
20260901170352 69 142 0.0 0.0 0.00 0.01 0.01 55 1025.8
20260901165851 68 159 0.0 0.0 0.00 0.01 0.01 53 1025.6
20260901165346 68 144 0.0 0.0 0.00 0.01 0.01 63 1025.8
20260901164843 67 131 0.0 0.0 0.00 0.01 0.01 60 1025.7
20260901164338 67 177 0.0 0.0 0.00 0.01 0.01 58 1025.7
20260901163837 66 184 0.0 0.0 0.00 0.01 0.01 60 1025.8
20260901163333 66 66 0.0 1.0 0.00 0.01 0.01 65 1025.4
20260901162828 65 103 0.0 0.0 0.00 0.01 0.01 65 1025.7
20260901162327 65 194 0.0 0.0 0.00 0.01 0.01 63 1025.8
20260901161826 65 145 0.0 1.0 0.00 0.01 0.01 66 1025.8
20260901161320 65 146 1.0 2.0 0.00 0.01 0.01 64 1025.9
20260901160816 64 144 0.0 0.0 0.00 0.01 0.01 66 1025.8
20260901160312 63 16 2.0 2.0 0.00 0.01 0.01 68 1025.8
20260901155811 63 34 1.0 2.0 0.00 0.01 0.01 69 1026.0
20260901155306 63 153 0.0 1.0 0.00 0.01 0.01 69 1025.9
20260901154803 63 194 1.0 1.0 0.00 0.01 0.01 70 1026.0
20260901154256 62 107 0.0 1.0 0.00 0.01 0.01 69 1025.8
20260901153751 62 139 0.0 0.0 0.00 0.01 0.01 73 1026.0
20260901153251 62 155 0.0 0.0 0.00 0.01 0.01 73 1026.0
20260901152750 62 100 1.0 1.0 0.00 0.01 0.01 72 1025.9
20260901152249 61 109 1.0 1.0 0.00 0.01 0.01 75 1026.3
20260901151744 60 92 1.0 1.0 0.00 0.01 0.01 74 1026.3
20260901151244 60 147 0.0 0.0 0.00 0.01 0.01 79 1026.3
20260901150744 59 145 0.0 0.0 0.00 0.01 0.01 81 1026.2
20260901150242 59 117 0.0 1.0 0.00 0.01 0.01 81 1026.4
20260901145740 57 164 0.0 0.0 0.00 0.01 0.01 81 1026.7
20260901145234 56 176 0.0 0.0 0.00 0.01 0.01 84 1026.5
20260901144730 56 173 0.0 0.0 0.00 0.01 0.01 84 1026.5
20260901144225 57 49 1.0 1.0 0.00 0.01 0.01 83 1026.7
20260901143720 57 89 2.0 3.0 0.00 0.01 0.01 85 1026.7
20260901143216 55 147 0.0 0.0 0.00 0.01 0.01 89 1026.7
20260901142712 54 129 0.0 0.0 0.00 0.01 0.01 91 1026.8
20260901142212 54 149 0.0 0.0 0.00 0.01 0.01 92 1026.5
20260901141707 54 98 0.0 1.0 0.00 0.01 0.01 91 1026.8
20260901141207 54 146 0.0 0.0 0.00 0.01 0.01 92 1026.7
20260901140706 54 133 0.0 0.0 0.00 0.01 0.01 91 1026.9
20260901140204 52 139 0.0 0.0 0.00 0.01 0.01 99 1026.8
20260901135700 51 129 0.0 0.0 0.00 0.01 0.01 99 1027.0
20260901135154 51 95 1.0 1.0 0.00 0.01 0.01 99 1026.9
20260901134650 50 157 0.0 0.0 0.00 0.01 0.01 99 1026.9
20260901134145 49 178 0.0 0.0 0.00 0.01 0.01 99 1026.8
20260901133644 48 154 0.0 0.0 0.00 0.01 0.01 99 1026.9
20260901133143 48 149 0.0 0.0 0.00 0.01 0.01 99 1026.7
20260901132638 48 149 0.0 0.0 0.00 0.01 0.01 99 1026.5
20260901132137 48 151 0.0 0.0 0.00 0.01 0.01 99 1026.5
20260901131632 47 153 0.0 0.0 0.00 0.01 0.01 99 1026.7
20260901131126 48 164 0.0 0.0 0.00 0.01 0.01 99 1026.5
20260901130621 48 172 0.0 0.0 0.00 0.01 0.01 99 1026.5
20260901130120 48 134 0.0 1.0 0.00 0.01 0.01 99 1026.7
20260901125618 48 178 0.0 0.0 0.00 0.01 0.01 99 1026.4
20260901125113 47 178 0.0 0.0 0.00 0.01 0.01 99 1026.4
20260901124608 48 173 0.0 0.0 0.00 0.01 0.01 99 1026.4
20260901124103 48 173 0.0 0.0 0.00 0.01 0.01 99 1026.4
20260901123603 48 148 0.0 0.0 0.00 0.01 0.01 99 1026.0
20260901123057 48 148 0.0 0.0 0.00 0.01 0.01 99 1026.3
20260901122555 48 148 0.0 0.0 0.00 0.01 0.01 99 1026.4
20260901122049 49 139 0.0 0.0 0.00 0.01 0.01 99 1026.0
20260901121550 48 161 0.0 0.0 0.00 0.01 0.01 99 1026.0
20260901121045 48 182 0.0 0.0 0.00 0.01 0.01 99 1026.2
20260901120539 49 155 0.0 0.0 0.00 0.01 0.01 99 1026.0
20260901120035 49 155 0.0 0.0 0.00 0.01 0.01 99 1025.9
20260901115530 49 145 0.0 0.0 0.00 0.01 0.01 99 1026.2
20260901115027 49 161 0.0 0.0 0.00 0.01 0.01 99 1025.9
20260901114523 49 179 0.0 0.0 0.00 0.01 0.01 99 1025.8
20260901114021 49 167 0.0 0.0 0.00 0.01 0.01 99 1025.9
20260901113520 49 180 0.0 0.0 0.00 0.01 0.01 99 1026.2
20260901113016 50 180 0.0 0.0 0.00 0.01 0.01 99 1025.9
20260901112510 50 155 0.0 0.0 0.00 0.01 0.01 99 1025.8
20260901112005 50 200 0.0 0.0 0.07 0.01 0.01 99 1025.8
20260901111504 50 187 0.0 0.0 0.07 0.01 0.01 99 1025.7
20260901111003 50 166 0.0 0.0 0.00 0.00 0.00 99 1025.9
20260901110458 50 166 0.0 0.0 0.00 0.00 0.00 99 1025.7
20260901105954 50 166 0.0 0.0 0.00 0.00 0.00 99 1025.7
20260901105450 50 166 0.0 0.0 0.00 0.00 0.00 99 1025.6
20260901104949 50 166 0.0 0.0 0.00 0.00 0.00 99 1025.7
20260901104445 50 167 0.0 0.0 0.00 0.00 0.00 99 1025.8
20260901103941 51 167 0.0 0.0 0.00 0.00 0.00 99 1025.7
20260901103441 51 171 0.0 0.0 0.00 0.00 0.00 99 1025.6
20260901102936 51 150 0.0 0.0 0.00 0.00 0.00 99 1025.7
20260901102430 51 151 0.0 0.0 0.00 0.00 0.00 99 1025.6
20260901101925 51 165 0.0 0.0 0.00 0.00 0.00 99 1025.4
20260901101421 51 164 0.0 0.0 0.00 0.00 0.00 99 1025.4
20260901100920 51 167 0.0 0.0 0.00 0.00 0.00 99 1025.6
20260901100414 51 167 0.0 0.0 0.00 0.00 0.00 99 1025.6
20260901095908 51 167 0.0 0.0 0.00 0.00 0.00 99 1025.7
20260901095406 51 167 0.0 0.0 0.00 0.00 0.00 99 1025.7
20260901094900 51 167 0.0 0.0 0.00 0.00 0.00 99 1025.8
20260901094354 52 166 0.0 0.0 0.00 0.00 0.00 99 1025.8
20260901093849 51 175 0.0 0.0 0.00 0.00 0.00 99 1025.7
20260901093348 52 175 0.0 0.0 0.00 0.00 0.00 99 1025.9
20260901092845 52 189 0.0 0.0 0.00 0.00 0.00 99 1025.6
20260901092340 52 183 0.0 0.0 0.00 0.00 0.00 99 1025.6
20260901091836 52 115 0.0 1.0 0.00 0.00 0.00 99 1025.6
20260901091336 52 174 0.0 0.0 0.00 0.00 0.00 99 1025.8
20260901090831 52 186 0.0 0.0 0.00 0.00 0.00 99 1025.8
20260901090325 52 181 0.0 0.0 0.00 0.00 0.00 99 1025.8
20260901085821 52 184 0.0 0.0 0.00 0.00 0.00 99 1025.7
20260901085322 52 200 0.0 0.0 0.00 0.00 0.00 99 1026.3
20260901084819 52 187 0.0 0.0 0.00 0.00 0.00 99 1025.9
20260901084314 52 187 0.0 0.0 0.00 0.00 0.00 99 1025.8
20260901083809 53 207 0.0 0.0 0.00 0.00 0.00 99 1025.9
20260901083309 53 159 0.0 0.0 0.00 0.00 0.00 99 1026.2
20260901082807 53 115 0.0 1.0 0.00 0.00 0.00 99 1025.9
20260901082306 53 145 0.0 0.0 0.00 0.00 0.00 99 1025.9
20260901081757 53 145 0.0 0.0 0.00 0.00 0.00 99 1026.2
20260901081252 53 147 0.0 0.0 0.00 0.00 0.00 99 1026.0
20260901080747 53 180 0.0 0.0 0.00 0.00 0.00 99 1026.2
20260901080246 53 180 0.0 0.0 0.00 0.00 0.00 99 1026.5
20260901075741 53 180 0.0 0.0 0.00 0.00 0.00 99 1026.4
20260901075235 53 180 0.0 0.0 0.00 0.00 0.00 99 1026.2
20260901074730 53 180 0.0 0.0 0.00 0.00 0.00 99 1026.4
20260901074225 53 180 0.0 0.0 0.00 0.00 0.00 99 1026.3
20260901073722 53 148 0.0 0.0 0.00 0.00 0.00 99 1026.3
20260901073217 53 89 1.0 1.0 0.00 0.00 0.00 99 1026.4
20260901072712 53 97 0.0 0.0 0.00 0.00 0.00 99 1026.4
20260901072207 53 182 0.0 0.0 0.00 0.00 0.00 99 1026.3
20260901071706 53 194 0.0 0.0 0.00 0.00 0.00 99 1026.2
20260901071201 53 194 0.0 0.0 0.00 0.00 0.00 99 1026.4
20260901070655 53 194 0.0 0.0 0.00 0.00 0.00 99 1026.5
20260901070150 53 141 0.0 0.0 0.00 0.00 0.00 99 1026.5